Temperature
10 11 11 11 11 11 11 11 11 11 10 10 10 11 11 11 11 11 11 11 11 11 10 10 10 10 10 10 10 11 11 10 11 10 10 10 10 10 10 10 10 10 10
10 10 10 10 10 10 10 10 10 10 10 10 10 10 10 10 10 10 10 10 10 10 10 10 10 10 10 10 10 10 10 10 10 10 10 10 10 10 10 10 10 10 10
9 9 9 9 9 9 9 9 9 9 9 10 10 10 10 10 10 10 10 10 10 10 10 9 9 9 9 9 10 10 10 10 10 9 10 10 9 10 10 9 9 9 9
9 9 9 9 9 9 9 9 9 9 9 9 9 9 9 9 9 9 10 10 9 9 9 9 9 9 9 9 9 9 9 9 9 9 9 9 9 9 9 9 9 9 9
8 8 8 8 8 8 8 8 8 8 8 9 9 9 9 9 9 9 9 9 9 9 8 8 8 8 8 8 8 8 9 9 9 9 9 8 8 8 8 8 9 9 9
8 8 8 8 8 8 8 8 8 8 8 8 8 8 8 9 9 8 8 8 8 8 8 8 8 8 8 8 8 8 8 8 8 8 8 8 8 8 8 8 8 8 8
7 7 7 7 7 7 7 7 7 7 7 7 7 8 8 8 8 8 8 7 7 7 7 7 7 7 7 7 7 7 7 7 7 7 7 8 8 8 8 7 8 8 8
7 7 7 7 7 6 6 7 6 6 6 6 6 6 6 7 7 7 7 7 7 7 7 7 7 7 7 7 7 7 7 7 6 6 7 7 7 7 7 7 7 7 7
6 6 6 6 6 6 6 6 6 6 6 6 6 5 5 5 5 6 6 6 6 6 6 6 6 6 6 6 6 6 6 6 6 6 6 6 7 7 6 7 7 7 7
5 5 5 5 5 5 5 5 5 5 5 5 5 5 5 4 4 4 5 5 6 6 6 6 6 6 6 6 6 6 6 6 6 6 6 6 6 6 6 6 6 6 6
5 5 5 5 5 5 5 5 5 5 4 4 4 4 4 4 4 3 4 4 5 5 5 5 5 5 5 5 5 5 5 5 5 5 5 5 5 5 5 6 6 6 6
4 4 4 4 4 4 4 4 4 4 4 4 4 4 3 3 3 3 3 3 4 4 4 5 5 4 5 5 5 5 5 5 5 5 5 5 5 5 5 5 5 5 5
4 4 4 4 3 3 3 3 3 3 3 3 3 3 3 3 3 3 3 2 2 3 4 4 4 4 4 4 4 4 4 4 4 4 4 4 4 4 4 4 5 5 5
3 3 3 3 3 3 3 3 3 3 3 3 3 3 3 3 3 2 2 2 2 2 2 3 3 3 3 3 3 3 4 4 4 4 4 4 4 4 4 4 4 4 4
3 2 2 2 2 2 2 2 2 3 3 2 2 2 2 2 2 2 2 2 2 1 1 2 2 3 3 3 3 3 3 3 3 3 3 3 3 3 3 3 3 3 3
2 2 2 2 2 2 2 2 2 2 2 2 2 2 2 2 2 2 2 2 2 1 1 1 2 2 2 2 2 2 2 2 3 3 3 2 2 2 2 3 3 3 3
1 1 1 2 2 2 1 1 1 2 1 1 1 1 2 2 1 1 1 1 1 1 1 1 1 2 2 2 2 2 2 2 2 2 2 2 2 2 2 2 2 2 2
1 1 1 1 1 1 1 1 1 1 1 1 1 1 1 1 1 1 1 1 1 1 0 1 1 1 1 1 1 1 1 1 1 1 1 1 1 1 1 1 2 2 2
1 0 0 0 1 0 0 0 0 0 0 0 0 1 1 1 1 1 1 1 0 0 0 0 0 1 1 1 1 1 1 1 1 1 1 1 1 1 1 1 1 1 1
0 -0 -0 -0 -0 -0 -0 -0 -0 -0 -0 -0 -0 0 0 0 0 0 0 0 0 0 -0 -0 -0 -0 -0 -0 -0 -0 -0 0 0 0 0 0 0 0 0 0 1 1 1
-0 -1 -1 -1 -1 -1 -1 -1 -1 -1 -0 -0 -0 -0 -0 -0 -0 -0 -0 -0 -0 -0 -0 -1 -1 -1 -1 -1 -1 -1 -1 -1 -1 -1 -0 -0 0 0 0 0 0 0 1
-1 -1 -1 -1 -1 -1 -1 -1 -1 -1 -1 -1 -1 -1 -1 -1 -1 -1 -1 -1 -1 -1 -1 -1 -1 -1 -1 -1 -1 -1 -1 -1 -1 -1 -1 -1 -0 -0 0 0 0 0 0
-2 -2 -2 -2 -2 -2 -2 -2 -2 -2 -1 -1 -1 -1 -1 -1 -1 -1 -1 -1 -1 -1 -1 -1 -1 -1 -1 -1 -1 -1 -1 -2 -2 -1 -1 -1 -0 -0 -0 -0 -0 -0 -0
-2 -2 -2 -2 -2 -2 -2 -2 -2 -2 -2 -2 -2 -2 -2 -2 -2 -2 -2 -1 -1 -1 -1 -1 -2 -2 -1 -1 -2 -2 -2 -2 -2 -1 -2 -2 -1 -1 -1 -0 -0 -1 -1
-2 -3 -3 -2 -2 -2 -2 -3 -2 -2 -2 -2 -2 -2 -2 -2 -2 -2 -2 -2 -2 -2 -2 -2 -2 -2 -2 -2 -2 -2 -2 -2 -2 -2 -1 -2 -1 -1 -1 -1 -1 -1 -1
-3 -3 -3 -3 -3 -3 -3 -3 -3 -3 -3 -3 -3 -3 -3 -3 -3 -3 -3 -2 -2 -2 -2 -2 -2 -2 -2 -2 -2 -2 -2 -2 -2 -2 -2 -2 -2 -2 -2 -1 -1 -1 -1
Wind_Speed
1 1 1 2 2 2 2 2 2 2 2 2 2 2 2 3 4 4 5 6 7 8 8 9 9 9 9 9 9 9 8 8 8 8 8 8 8 9 9 9 9 10 10
2 1 0 1 1 2 2 2 1 1 1 1 2 3 3 4 4 4 5 5 6 7 8 8 9 9 9 9 9 9 9 9 9 9 9 9 9 9 9 9 10 10 11
2 1 1 0 1 2 2 2 2 1 1 1 2 3 3 3 3 4 4 4 4 5 7 8 9 9 10 10 10 10 9 9 9 9 10 9 9 9 10 10 10 11 11
2 1 1 1 1 1 1 1 1 1 1 1 2 3 3 3 3 3 2 2 3 3 5 7 8 9 10 11 11 11 10 10 10 10 10 10 10 10 10 11 11 11 12
2 1 1 0 0 0 1 1 1 1 2 2 3 3 3 3 3 2 2 2 2 3 4 5 7 8 9 10 11 11 10 10 10 10 10 10 10 11 11 11 11 12 12
2 1 1 0 0 0 1 1 1 1 2 2 3 3 3 3 2 2 3 2 2 3 3 4 5 6 8 9 9 10 9 9 10 11 11 11 12 12 12 12 12 13 13
2 2 1 1 1 1 1 1 1 1 1 1 1 3 3 3 2 2 2 2 2 3 3 3 4 4 5 8 9 11 10 10 10 11 12 12 12 13 13 13 13 14 14
2 2 2 2 2 1 1 1 1 1 1 1 0 1 2 3 2 2 2 2 2 2 3 4 4 4 5 5 8 11 11 11 12 12 12 13 13 14 14 14 14 14 14
2 2 2 2 2 2 2 2 2 2 2 2 1 1 1 3 3 2 2 2 2 2 2 3 4 5 5 5 7 9 11 11 11 12 13 13 14 15 15 15 15 14 14
2 2 2 2 3 2 3 3 2 2 3 2 2 2 2 2 2 2 3 2 2 3 3 3 4 5 5 5 7 10 11 10 11 12 12 13 14 15 15 16 15 14 14
2 3 2 2 2 2 3 3 3 3 3 3 2 2 2 2 2 3 4 3 3 3 3 3 3 4 5 6 7 9 11 10 11 12 12 13 14 15 15 15 14 14 14
2 2 2 2 2 2 3 3 3 4 4 3 3 2 2 2 2 3 4 4 4 3 3 3 3 4 5 6 8 10 11 11 11 11 12 13 14 14 15 14 13 13 14
2 3 2 2 2 3 3 3 3 4 4 4 4 3 3 4 3 3 4 4 4 4 3 2 3 3 4 6 7 10 10 11 11 11 12 12 13 14 14 13 13 13 14
3 3 2 2 2 3 3 2 3 3 3 4 5 4 4 4 3 4 3 3 4 4 3 4 2 3 4 5 7 10 9 11 11 11 11 12 12 12 12 12 13 13 13
3 3 3 2 2 2 3 3 3 3 3 4 4 4 4 4 3 4 4 4 4 4 5 3 2 3 4 5 7 7 7 10 10 10 10 10 10 11 11 11 12 12 13
3 3 3 3 3 3 3 3 3 3 3 3 3 4 4 4 4 4 4 4 4 5 5 3 3 3 4 5 8 7 8 11 11 10 10 10 10 11 11 11 12 12 13
3 3 4 3 3 3 3 3 3 2 3 3 3 4 4 4 4 4 4 4 4 4 6 5 3 4 4 5 6 6 7 7 8 10 11 10 10 10 11 11 12 13 13
3 4 4 3 3 3 3 3 3 3 4 4 4 4 4 4 4 4 4 4 4 4 4 6 4 4 4 4 5 5 5 7 7 10 11 11 11 11 11 12 12 12 13
3 3 3 3 3 3 3 4 4 4 4 5 4 4 4 4 4 4 4 4 3 3 3 4 5 4 3 4 4 5 5 5 6 8 9 10 11 11 12 12 13 13 12
3 3 2 2 3 3 4 4 4 4 4 4 4 4 4 4 4 4 4 4 3 3 2 3 4 4 4 3 3 4 5 4 5 6 8 9 10 11 11 12 12 12 12
3 3 2 2 3 3 3 3 3 3 3 3 3 4 4 5 5 5 4 3 3 2 2 3 4 4 4 3 4 3 5 5 5 4 4 5 5 5 7 10 11 11 12
2 2 2 2 3 3 4 4 3 2 2 2 3 3 3 4 5 6 7 6 4 3 4 4 4 5 5 4 4 4 5 5 5 2 3 5 4 5 6 6 10 11 11
2 2 2 2 2 3 4 4 3 1 2 2 3 3 3 3 4 3 5 5 5 6 6 5 5 5 5 5 4 4 4 5 5 4 4 5 4 5 5 7 10 10 10
2 2 2 2 2 3 4 3 3 1 1 2 2 3 3 4 3 4 3 3 3 4 5 4 4 5 5 4 4 4 5 4 5 4 3 4 4 4 6 6 9 9 10
2 2 2 1 2 3 4 3 3 1 1 2 3 3 3 3 5 5 3 3 3 4 4 5 5 6 6 6 4 2 3 3 5 4 2 2 3 4 5 5 6 8 9
2 1 2 1 2 2 4 4 3 1 1 2 2 3 4 4 5 5 2 2 3 4 3 4 5 5 4 4 5 3 3 4 4 3 2 2 3 3 3 3 3 5 6
Wind_Direction
107 59 43 42 25 22 21 12 19 12 6 354 339 314 291 281 275 276 280 282 282 281 281 284 283 285 286 288 280 275 276 277 278 283 283 283 283 279 276 279 282 285 284
140 124 64 19 10 11 11 3 345 325 311 334 323 314 298 288 280 280 280 282 284 286 284 288 290 289 289 288 286 278 278 279 281 281 282 282 281 280 281 277 278 280 282
149 135 146 319 332 350 3 5 351 347 309 317 304 302 299 289 286 285 285 286 286 292 292 290 291 290 292 289 293 285 281 280 281 282 281 281 283 282 280 280 281 279 280
154 135 172 238 306 357 9 328 325 326 296 289 287 287 288 287 279 276 275 281 285 288 293 295 295 292 292 291 291 291 284 282 283 286 283 281 282 283 282 281 283 284 281
163 154 194 233 259 7 340 309 345 313 290 294 287 286 287 280 273 273 267 279 281 287 293 303 305 302 299 297 292 295 288 286 283 283 284 282 282 281 282 281 282 283 284
176 171 195 240 186 248 304 294 287 312 291 287 301 303 293 282 268 255 251 266 281 284 295 306 312 309 309 304 301 302 293 291 289 285 283 283 282 280 280 281 281 281 281
188 185 208 210 207 208 245 252 271 295 317 315 330 322 308 284 262 260 259 260 273 291 308 312 311 308 307 308 305 303 295 291 291 290 287 284 283 282 281 280 281 280 279
212 211 203 207 212 212 238 236 198 211 288 319 316 338 323 321 306 294 284 271 279 314 313 321 318 308 304 303 304 307 301 293 290 290 290 287 285 283 282 281 280 281 280
234 233 222 211 212 204 221 232 206 195 231 274 234 186 221 259 297 282 273 278 298 303 297 305 306 310 306 305 304 303 302 296 294 293 293 292 287 285 282 281 280 279 280
245 235 232 223 213 211 220 234 221 213 204 241 265 244 232 222 252 295 283 279 287 289 292 300 297 300 299 301 298 302 301 299 296 295 296 296 293 287 285 282 280 281 280
259 246 237 228 225 223 222 228 230 220 214 223 232 245 258 257 236 241 275 289 294 277 280 274 273 285 294 299 298 296 297 295 294 294 294 294 294 294 291 289 287 287 284
263 253 244 229 228 230 227 229 224 222 224 223 231 232 230 234 235 236 256 279 286 286 288 271 270 278 294 302 298 300 300 294 292 293 294 295 294 293 290 290 291 292 291
275 269 254 229 231 236 234 228 220 225 223 222 226 236 235 244 239 242 253 272 282 289 281 268 260 276 297 304 302 310 305 297 293 293 293 296 297 296 292 290 291 292 294
259 262 255 248 250 244 241 230 229 231 230 230 236 240 241 245 242 240 240 257 284 287 272 262 267 263 292 300 302 310 306 301 297 295 295 297 298 296 295 297 297 296 298
260 259 253 243 248 246 243 233 234 233 231 239 239 240 243 245 243 244 239 235 241 274 280 253 260 276 292 296 301 306 302 304 304 304 302 302 304 303 301 301 303 303 303
257 256 254 246 244 243 243 239 245 243 236 244 247 245 243 246 245 242 237 239 236 248 267 262 265 284 292 300 301 305 303 307 306 305 303 303 304 304 303 301 300 301 300
257 254 251 246 241 241 238 237 243 246 251 261 258 254 255 248 241 240 237 241 241 239 264 282 280 288 286 292 302 302 303 302 301 304 301 302 301 301 301 302 301 301 301
259 255 251 244 243 242 234 232 242 247 247 255 260 259 263 264 254 242 235 241 244 237 252 278 291 294 292 291 297 300 306 304 296 301 302 302 300 300 299 300 301 302 303
268 262 258 250 248 246 240 238 237 244 248 251 251 252 260 262 268 261 246 244 244 246 246 265 286 293 299 303 305 302 301 300 297 303 303 300 300 301 300 300 301 302 303
274 266 264 260 255 251 246 244 245 243 246 254 255 252 251 252 256 262 258 250 243 239 240 262 281 293 296 299 297 304 309 302 300 309 306 299 299 300 300 300 300 302 302
287 273 266 276 272 260 248 239 237 239 247 262 268 262 260 266 269 274 268 260 253 245 255 264 275 288 289 300 298 294 293 299 297 291 296 299 304 303 301 301 305 305 302
304 291 278 276 276 273 272 272 266 244 246 255 270 275 273 274 282 286 285 276 261 256 258 260 268 275 282 280 284 289 291 300 305 294 293 298 303 299 301 299 302 305 305
299 305 299 286 279 280 293 294 289 273 259 266 271 278 288 290 299 287 292 301 296 284 271 264 265 269 274 281 282 286 285 288 287 292 295 294 296 292 301 301 303 304 307
280 287 295 292 297 297 307 308 305 291 284 288 286 276 272 278 286 291 289 306 301 297 286 271 259 267 271 272 267 266 270 281 290 293 283 283 290 291 302 307 306 308 313
276 277 276 277 284 297 310 313 319 275 291 296 293 290 289 278 296 306 307 300 305 308 310 293 284 286 289 290 293 292 290 299 300 298 277 261 281 298 299 295 308 311 315
272 295 307 306 290 287 306 314 322 270 296 301 301 301 303 308 311 319 310 292 296 300 313 325 320 317 312 306 303 286 270 282 295 291 268 267 283 308 309 293 308 326 326
Height
1502 1503 1503 1504 1504 1505 1505 1506 1506 1507 1507 1507 1508 1508 1508 1508 1508 1509 1509 1509 1509 1510 1510 1510 1510 1510 1510 1510 1510 1510 1510 1511 1511 1510 1510 1510 1509 1509 1508 1508 1508 1507 1506
1500 1500 1500 1501 1501 1502 1502 1502 1503 1503 1504 1504 1504 1505 1505 1505 1505 1505 1505 1505 1505 1506 1506 1506 1506 1506 1506 1506 1506 1506 1506 1506 1506 1506 1506 1505 1505 1504 1504 1503 1503 1503 1502
1497 1497 1497 1498 1498 1499 1499 1500 1500 1500 1500 1500 1501 1501 1501 1501 1501 1501 1501 1501 1501 1501 1502 1502 1502 1502 1502 1502 1501 1502 1502 1502 1502 1501 1501 1501 1500 1500 1499 1499 1498 1498 1498
1493 1494 1494 1495 1495 1496 1496 1496 1497 1497 1497 1497 1497 1497 1497 1497 1497 1497 1497 1497 1497 1497 1497 1497 1497 1497 1497 1497 1497 1497 1497 1497 1497 1496 1496 1496 1495 1495 1494 1494 1494 1493 1493
1490 1490 1491 1491 1492 1492 1492 1493 1493 1493 1493 1493 1493 1493 1493 1493 1493 1493 1492 1492 1492 1492 1493 1493 1493 1493 1492 1492 1492 1492 1492 1492 1492 1492 1491 1491 1490 1490 1490 1489 1488 1488 1487
1487 1487 1487 1488 1488 1488 1489 1489 1489 1490 1489 1489 1489 1489 1489 1488 1488 1488 1488 1488 1488 1488 1488 1488 1488 1488 1487 1487 1487 1486 1487 1487 1487 1487 1486 1486 1485 1485 1484 1484 1483 1483 1482
1483 1483 1484 1484 1484 1485 1485 1486 1485 1486 1486 1486 1485 1484 1484 1484 1483 1483 1484 1484 1484 1484 1484 1484 1483 1483 1482 1482 1482 1481 1481 1481 1481 1481 1481 1481 1480 1480 1479 1478 1478 1477 1476
1479 1479 1480 1480 1480 1480 1481 1482 1482 1482 1482 1482 1482 1481 1480 1480 1479 1480 1480 1480 1480 1480 1480 1479 1479 1478 1478 1477 1477 1476 1476 1476 1476 1476 1475 1475 1475 1474 1473 1473 1472 1472 1471
1475 1475 1476 1476 1476 1477 1477 1478 1478 1478 1478 1479 1479 1480 1478 1476 1476 1475 1475 1476 1476 1476 1475 1475 1474 1474 1473 1472 1472 1471 1470 1470 1470 1470 1470 1469 1469 1468 1468 1467 1466 1465 1465
1471 1471 1471 1472 1472 1472 1473 1474 1474 1474 1475 1475 1475 1475 1476 1475 1474 1471 1471 1471 1472 1471 1471 1470 1470 1469 1468 1467 1467 1466 1465 1464 1464 1464 1464 1463 1463 1462 1462 1461 1460 1459 1458
1467 1467 1467 1467 1468 1468 1469 1469 1470 1470 1471 1471 1471 1471 1471 1471 1470 1469 1466 1466 1467 1467 1466 1466 1465 1464 1463 1463 1462 1460 1460 1459 1458 1458 1458 1457 1457 1456 1456 1455 1454 1453 1452
1463 1463 1463 1463 1463 1464 1464 1465 1465 1466 1466 1466 1467 1467 1467 1467 1466 1465 1464 1462 1462 1461 1461 1461 1461 1460 1459 1458 1457 1456 1454 1453 1452 1452 1452 1451 1451 1450 1450 1449 1448 1447 1446
1458 1459 1459 1459 1459 1460 1460 1460 1460 1461 1461 1462 1462 1462 1463 1462 1462 1462 1461 1459 1458 1456 1456 1456 1456 1455 1454 1453 1452 1450 1449 1448 1447 1446 1446 1446 1445 1444 1444 1443 1442 1441 1440
1454 1455 1455 1455 1455 1455 1455 1455 1456 1456 1456 1457 1457 1458 1458 1458 1458 1458 1457 1456 1454 1452 1451 1451 1451 1450 1449 1448 1447 1446 1444 1443 1441 1441 1440 1439 1439 1438 1438 1437 1436 1435 1434
1451 1451 1451 1451 1451 1451 1451 1451 1451 1451 1452 1452 1452 1453 1453 1453 1453 1453 1453 1453 1452 1448 1446 1445 1446 1445 1445 1444 1443 1441 1439 1438 1437 1435 1434 1434 1433 1432 1431 1431 1430 1429 1428
1447 1447 1447 1446 1446 1447 1447 1447 1447 1447 1447 1447 1448 1448 1448 1448 1449 1449 1448 1448 1447 1446 1443 1441 1441 1441 1440 1439 1438 1436 1435 1433 1432 1430 1429 1428 1427 1427 1426 1425 1425 1423 1422
1443 1443 1443 1442 1442 1442 1443 1443 1442 1442 1442 1443 1443 1444 1443 1444 1443 1444 1443 1443 1443 1442 1439 1437 1437 1436 1435 1434 1433 1432 1430 1429 1427 1426 1424 1423 1422 1422 1421 1420 1419 1418 1417
1439 1439 1438 1438 1438 1438 1438 1438 1438 1438 1438 1438 1439 1439 1439 1439 1439 1439 1438 1438 1437 1437 1436 1433 1432 1431 1431 1430 1428 1427 1426 1424 1423 1421 1420 1419 1418 1417 1416 1415 1414 1413 1412
1435 1434 1434 1433 1433 1433 1434 1434 1434 1434 1434 1434 1434 1434 1434 1435 1434 1434 1434 1433 1433 1432 1432 1430 1428 1427 1426 1425 1423 1422 1421 1420 1419 1417 1416 1414 1413 1412 1411 1410 1409 1408 1406
1431 1430 1430 1429 1429 1430 1430 1430 1430 1430 1430 1430 1430 1430 1430 1430 1430 1430 1429 1429 1428 1428 1428 1426 1424 1423 1422 1421 1420 1418 1416 1415 1414 1413 1411 1410 1409 1407 1406 1405 1404 1403 1401
1427 1427 1426 1426 1426 1426 1426 1426 1426 1426 1426 1426 1426 1426 1426 1426 1426 1426 1425 1425 1425 1424 1423 1422 1421 1420 1419 1418 1416 1414 1413 1411 1410 1409 1407 1406 1404 1402 1401 1400 1399 1397 1396
1424 1423 1422 1422 1423 1423 1423 1423 1423 1423 1423 1423 1422 1422 1422 1422 1422 1422 1422 1421 1421 1420 1419 1418 1418 1417 1415 1415 1413 1412 1410 1408 1405 1405 1403 1401 1400 1398 1396 1395 1394 1393 1392
1421 1421 1420 1420 1420 1420 1420 1420 1420 1420 1420 1420 1419 1419 1419 1419 1419 1418 1418 1417 1417 1417 1417 1416 1414 1413 1412 1411 1410 1408 1407 1405 1403 1402 1400 1396 1396 1394 1393 1391 1390 1389 1388
1418 1418 1417 1417 1417 1417 1417 1417 1417 1417 1416 1416 1416 1416 1416 1415 1415 1415 1414 1413 1413 1413 1413 1411 1411 1410 1409 1408 1407 1406 1404 1402 1400 1399 1398 1394 1392 1390 1388 1387 1386 1385 1384
1416 1415 1415 1415 1415 1415 1415 1414 1414 1413 1413 1413 1413 1413 1413 1412 1412 1412 1411 1410 1410 1409 1409 1408 1408 1407 1406 1405 1405 1403 1401 1399 1397 1395 1394 1392 1389 1386 1384 1382 1381 1380 1379
1413 1413 1413 1413 1413 1412 1412 1412 1412 1411 1411 1411 1411 1410 1410 1410 1409 1409 1408 1407 1407 1406 1406 1405 1404 1403 1403 1402 1401 1401 1399 1397 1395 1392 1391 1390 1387 1385 1381 1379 1378 1377 1376